Regional Weather Roundup
Issued by NWS

Home | Current Version | Previous Version | Graphics & Text | Print | Product List | Glossary On
Versions: 1 2 3 4 5 6 7 8 9 10 11 12 13 14 15 16 17 18 19 20 21 22 23 24 25 26 27 28 29 30 31 32 33 34 35 36 37 38 39 40 41 42 43 44 45 46 47 48 49 50
875
ASUS43 KTOP 230708
RWRKS

WEATHER ROUNDUP FOR KANSAS
NATIONAL WEATHER SERVICE GOODLAND KS
100 AM CST THU FEB 23 2017

NOTE:  "FAIR" INDICATES FEW OR NO CLOUDS BELOW 12,000 FEET WITH NO
SIGNIFICANT WEATHER AND/OR OBSTRUCTIONS TO VISIBILITY.

KSZ001>006-013>018-027>032-041>047-230800-
NORTHWEST KANSAS

CITY           SKY/WX    TMP DP  RH WIND       PRES   REMARKS
GOODLAND       CLOUDY    42  22  44 E13       29.66F
HAYS             N/A     49  31  49 NE16      29.68S
HILL CITY      CLOUDY    47  31  53 E12       29.70F
RUSSELL        CLOUDY    49  32  52 E12       29.67S
$$

KSZ061>065-074>080-084>089-230800-
SOUTHWEST KANSAS

CITY           SKY/WX    TMP DP  RH WIND       PRES   REMARKS
DODGE CITY     PTCLDY    53  31  42 E8        29.63S
ELKHART          N/A     57  24  28 SW8         N/A
GARDEN CITY    CLOUDY    51  29  42 E9        29.63S
GREAT BEND     CLOUDY    50  32  50 E7        29.67R
LIBERAL        CLOUDY    57  25  28 SW5       29.64R
PRATT          PTCLDY    48  30  50 E7        29.62F
$$

KSZ066>073-081>083-090>101-230800-
SOUTHEAST KANSAS

CITY           SKY/WX    TMP DP  RH WIND       PRES   REMARKS
CHANUTE        MOCLDY    50  41  71 NE5       29.67F
COFFEYVILLE    CLEAR     55  47  74 SE5       29.66S
HUTCHINSON     PTCLDY    57  34  41 NE8       29.63F
MEDICINE LODGE   N/A     44  36  73 E7        29.61F
NEWTON         PTCLDY    56  37  49 NE9       29.64F
PARSONS        CLEAR     45  40  82 CALM      29.67F
WICHITA INTL   PTCLDY    51  44  77 NE6       29.62F
WICHITA JABRA  CLEAR     52  45  77 CALM      29.63F
WICHITA MCCONL PTCLDY    57  44  59 CALM      29.62F
WINFIELD       CLEAR     49  42  77 SE3       29.63F
$$

KSZ007>012-019>026-033>040-048>060-102>105-230800-
NORTHEAST KANSAS

CITY           SKY/WX    TMP DP  RH WIND       PRES   REMARKS
CONCORDIA      CLOUDY    50  35  56 E12       29.71F
EMPORIA        PTCLDY    53  40  61 NE14      29.67F
LAWRENCE       CLOUDY    49  37  63 NE3       29.71F
MANHATTAN      PTCLDY    54  37  52 NE15      29.71R
MARYSVILLE     CLOUDY    48  37  66 NE12      29.73S
OLATHE IND     PTCLDY    52  39  61 NE10      29.71F
OLATHE EXE     CLOUDY    56  39  53 NE9       29.72R
SALINA         PTCLDY    56  35  45 NE14G21   29.66F
TOPEKA BILLARD PTCLDY    52  40  63 E5        29.71F
TOPEKA FORBES  MOCLDY    53  37  54 NE5       29.71F
$$




USA.gov is the U.S. government's official web portal to all federal, state and local government web resources and services.